Flag for Egypt Weather past 2 weeks in Alexandria, Egypt

Now
82 °F

Sunny.


Feels Like: 82 °F
Forecast: 72 / 99 °F
Wind: 7 mph from Northeast

Location: Alexandria / Nouzha

Current Time: May 26, 2015 at 11:55:52 AM

Latest Report: May 26, 2015 at 11:00 AM


Visibility: 10 mi

Pressure: 29.92 "Hg

Humidity: 45%

Dew point: 59 °F

Location of AlexandriaLocation

Historic Weather in Alexandria — Graph

°F

Alexandria temperature yesterday

Maximum temperature yesterday: 90 °F (at 11:00 AM)
Minimum temperature yesterday: 70 °F (at 4:00 AM)
Average temperature yesterday: 76 °F

Past Weeks' High & Low Weather Summary

 TemperatureHumidityPressure
High91 °F (May 23, 12:00 PM)88% (May 12, 4:00 AM)30.15 "Hg (May 12, 4:00 AM)
Low57 °F (May 15, 5:00 AM)15% (May 23, 3:00 PM)29.74 "Hg (May 11, 10:00 AM)
Average73 °F63%29.93 "Hg
* Reported May 11 10:00 AM — May 26 10:00 AM, Alexandria, Weather by CustomWeather, © 2015

Note: Actual official high and low records may vary slightly from our data, if they occured in-between our weather recording intervals... More about our weather records

Advertising

Alexandria weather history for previous 24 hours

 ConditionsComfort  
Time TempWeatherWind HumidityBarometerVisibility
10:00 AM
Tue, May 26
81 °FSunny.6 mph51%29.89 "Hg10 mi
9:00 AM73 °FSunny.1 mph78%29.92 "Hg10 mi
8:00 AM73 °FSunny.2 mph78%29.92 "Hg10 mi
7:00 AM72 °FSunny.2 mph78%29.89 "Hg10 mi
6:00 AM64 °FSunny.3 mph88%29.86 "Hg10 mi
4:00 AM68 °FClear.2 mph83%29.83 "Hg10 mi
3:00 AM68 °FClear.3 mph88%29.86 "Hg10 mi
2:00 AM68 °FClear.3 mph83%29.86 "Hg10 mi
1:00 AM70 °FPassing clouds.5 mph78%29.89 "HgN/A
12:00 AM72 °FPassing clouds.8 mph78%29.92 "HgN/A
11:00 PM
Mon, May 25
72 °FPassing clouds.8 mph83%29.92 "HgN/A
10:00 PM72 °FMild.7 mph78%29.92 "HgN/A
9:00 PM72 °FPassing clouds.8 mph78%29.92 "HgN/A
8:00 PM72 °FClear.7 mph78%29.89 "Hg10 mi
7:00 PM73 °FClear.10 mph74%29.89 "Hg10 mi
6:00 PM77 °FSunny.7 mph57%29.86 "Hg10 mi
5:00 PM79 °FSunny.9 mph54%29.86 "Hg10 mi
4:00 PM81 °FSunny.12 mph58%29.86 "Hg10 mi
3:00 PM82 °FSunny.13 mph40%29.89 "Hg10 mi
2:00 PM82 °FSunny.9 mph55%29.92 "Hg10 mi
1:00 PM82 °FSunny.7 mph51%29.92 "Hg10 mi
12:00 PM82 °FPassing clouds.10 mph48%29.95 "HgN/A
11:00 AM90 °FSunny.12 mph27%29.92 "Hg10 mi
Weather by CustomWeather, © 2015

See weather overviewHow to use our weather pages